[Date Prev][Date Next][Thread Prev][Thread Next][Date Index][Thread Index][JAMSAT Home]

[jamsat-news:1808] jas2info #317


========================   最新情報   ==============================

        Last updated  24Jun2003  21:30(JST)   #317

====================================================================
   
1)アマチュア通信衛星情報、FOシリーズの軌道要素、テレメトリ、
QSOの状況等をまとめてみました.
   
 FO−29は2003年6月24日(火)の14:14(JST)の
パスのテレメトリと分析結果です。JARLのホームページにあるとうりでした。

AS33830C  24Jun2003
14:14-14:30(JST)
AOS   MEL  LOS  Elev
 22    96  170  37.4
Freq. 435.805-.788Hz
(JAS-2  No.123  B 100-1200)

HI HI A6 C7 80 H5 00 D5 B2 68 08 28 4D 22 83 60 91 91 9F 88 B9 B7 B8 B8 B5 
HI HI A6 C7 80 55 00 D5 73 68 00 37 91 1E 83 60 92 91 B0 C3 B8 B7 B8 B8 B5 
HI HI A6 C7 80 55 00 D5 6C 68 00 13 36 48 87 60 91 90 B0 7B B8 B6 B8 B8 B5 
HI HI A6 C7 80 55 00 D5 AE 68 00 30 8F 21 7D 60 91 90 B0 78 B8 B6 B8 B8 B5 
HI HI A6 C7 80 55 00 D5 F2 68 00 3B 33 42 85 60 91 90 B0 8E B8 B6 B8 B8 B5 
HI HI A6 C7 80 55 00 D5 10 69 00 27 97 63 7C 60 91 90 B0 86 B8 B6 B8 B8 B5 
HI HI A6 C7 80 55 00 D5 DD 68 08 65 37 55 79 60 91 90 B0 7B B8 B6 B8 B7 B5 
HI HI A6 C7 80 55 00 D5 D2 68 08 55 51 9D 7C 60 91 90 B0 86 60 B4 B8 B8 B5
HI HI A6 C7 80 55 00 D5 A4 68 08 3E 4A 56 7A 60 91 90 B0 9D B8 B4 B8 B8 B5 
HI HI A6 C7 80 55 00 D5    68 08 66 7C 60 9F 60 91 90 B0 75 B8 B5 B7 B7 B5 
HI HI A6 C7 80 55 00 D5    68 00 13 69 62 71 60 91 92 B0 7A B8 B5 B7 B7 B5 
HI HI A6 C7 80 55 00 D5 CB 68 00 33    78 79 60 91 92 80 50 B7 B7 B5 B7 B5  
HI HI A6 C7 80 55 00 D5 08 69 00 3B 89 84 81 61 93 92 B0 51 B7 B5 B7 B7 B5 
HI HI A6 C7 80 55 00 D5 14 69 00 20 60 89 90 61 93 92 B0 7B B7 B5 B7 B7 B5 
HI HI A6 C7 80 55 00 D5 EB 68 08 6C 87 A9 7F 60 93 92 B0 66 B7 B5 B7 B7 B5 
HI HI A6 C7 80 55 00 D5 DB 68 08 66 74 A4 8E 60 93 93 B0 88 B7 B4 B6 B8 B5 
HI HI A6 C7 80 55 00 D5 E3 68 08 65 70 A7 7A 61 93 93 BO 7D B7 B4 B6 B7 B5 
HI HI A6 C7 80 55 00 D5 D4 68 08 26 6E 9A 88 61 94 93 B0 7E B7 B4 B6 B7 B5 
HI HI A6 C7 80 55 00 D5 D5 68 08 3E 56  F 82 61 93 92 B0 72 B7 B4 B6 B6 B5 


AS33790C  21Jun2003
15:14-15:30(JST)
AOS   MEL  LOS  Elev
 10   288  199  77.6
Freq. 435.805-.787Hz
(JAS-2  No.123  A 2560-3100  B 0-100)

HI HI A6 C7 80 55 00                70 47 2F 58 60 93 B0 74 B8 B6 B8 B8 B4 
HI HI A6 C7 80 55 00 D5 60 70 00 39 7F 1A 7E 5F 91 90 B0 74 B8 B6 B8 B8 B5 
HI HI A6 C7 80 55 00 D5 5A 70 08 20 76 4F 78 60 91 8F B0 69 B8 B6 B8 B8 B5 
HI HI A6 C7 80 55 00 D5 1A 70 08 79 55 37 83 5F 91 88 B0 65 B8 B8 B8 B8 B5 
HI HI A6 C7 80 55 00 D5 F6 6F 08 7D 4D 34 7E 5F 91    B0 86 B8 B6 B8 B8 B4 
HI HI A6 C7 80 55 00 D5 00 70 08 7A 79 53 76 60 91    B0 8F B8 B6 B7 B8 B4
HI HI A6 C7 80 55 00 D5 16 70 08 6C 9D 65 81 60 91 90 AF 84 B8 B6 B7 B8 B5 
HI HI A6 C7 80 55 00 D5 F3 6F 08 2B 6B 50 83 60 92 51 B0 77 B8 B6 B7 B7 B5 
HI HI A6 C7 80 55 00 D5 A0 6F 08 32 36 55 83 60 92 93 B0 86 B8 B6 B7 B7 B5 
HI HI A6 C7 80 55 00 D5 6D 6F 00 17 70 4C 7D 60 92 91 B0 87 B8 B5 B7 B7 B5 
HI HI A6 C7 80 55 00 D5 9D 6F 00 55 95 39 54 60 92 91 B0 64 B7 B5 B7 B7 B7 
HI HI A6 C7 80 55 00 D5 44                                  B7 B5 B7 B7 B5
HI HI A6 C7 80 55 00 D5 0B 70 08 6  8C 9D 84 60 95 6A B0 65 B7 B5 B7 B7 B5 
HI HI A6 C7 80 55 00 D5 EF 6F 80 7D 65 96 89 60 95 63 B0 69 B7 BS B7 B7 B5
HI HI A6 C7 80 55 00 D5 6F 00 79 39 73 79 90 60 95 92 B0 62 B7 B4 B7 B6 B5 
HI HI A6 C7 80 55 00 D5 0D 70 08 67 6F 80 76 61 93 92 B0 7C B7 B4 B6 B6 B5 
HI HI A6 C7 8  55 00 D5 DB 6F 08 2F 89 81 7B 61 93 92 B0 85 B7 B4 B6 B7 B5 
HI HI A6 C7 80 55 00 D5 88 6F 00 31 72 7D 73 61 93 92 B0 97 B9 B4 B6 B6 B5 
HI HI A6 C7 80 55 00 D5 61 6A 08 15 74 93 75 61 94 92 B0 96 B9 B4 B6 B6 B5 


AS33776C  20Jun2003
14:25-14:40(JST)
AOS   MEL  LOS  Elev
 20    96  174  43.8
Freq. 435.804-.787Hz
(JAS-2  No.123  A 1900-2560)

HI HI A6 C7 80 55 00 D5       08 75 89 57 6E 60 91 90 B0 8F B8 B6 B7 B8 B4 
HI HI A6 C7 80 55 00 D5 13 73 08 77 86 E0 76 60 91 90 B0 86 B8 B6 B7 B8 B4 
HI HI A6 C7 80 55 00 D5 11 74 08 6E 96 5D 83 5F 91 90 B0 89 B7 B6 B7 B7 B4 
HI HI A6 C7 80 55 00 D5 F7 73 08 27 7C 3A 86 60 91 91 B0 8A B7 B6 B7 B7 B4 
HI HI A6 C7 80 55 00 D5 14 73 00 36 4E 30 77 60 91 70 B0 85 B8 B6 B7 B7 B4 
HI HI A6 C7 80 55 00 D5 4D 73 08             60 91 90 B0 8D B7 B7 B7 B7 B4 
HI HI A6 C7 80 55 00 D5 62 73 08 1B 4E 66 84 60 91 90 B0 87 B7 B5 B7 B7 B4 
HI HI A6 C7 80 5S 00 D5 54 73 08 73 45 79 68 60 91 B0 7E 87 B5 B7 B7 B7 B4
HI HI A6 C7 60 55 00 D5 3E 74 00 32 80 3B 93 60 92 91 B0 7F B7 B5 B7 B7 B4 
HI HI A6 C7 88 55 00 D5 71 74 00 2D 97 6B IB 60 92 91 B0 6F B7 B5 B7 B7 B4 
HI HI A6 C7 80 55 00 D5 45 74 08 67 8E 7E 98 60 92 92 B0 87 B7 B5 B7 B7 B5 
HI HI A6 C7 80 55 00 D5 EA 73 08 7E 83 8A 77 60 93 92 B0 5A B7 B5 B6 B7 B5 
HI HI A6 C7 80 55 00 D5 DA 73 08 7E 8A 8F 76 60 93 92 B0 6B B7 B5 B6 B7 B5 
HI HI A6 C7 80 55 00 D5 FC 73 08 7F 7E 9D 79 60 93 92 B0 8B B7 B4 B6 B6 B5 
HI HI A6 C7 80 55 00 D5 13 74 08 62 66 88 76 61 93 92 B0       B4 B6 B6 B5 
HI HI A6 C7 80 55 00 D5 E6 73 08 29 59 78 7Z 61 93 92 B0 6C B7 B4 B6 B6 B5 
HI HI A6 C7 80 55 00 D5 7E 73 08 30 4A 76 7A 61 93 92 B0 8A B6 B4 B6 B6 B5 
HI HI A6 C7 80 55 00 D5 67 73 08 95 3E       61 93 92 B0 8A B6 B4 B6 B6 B5 
HI HI A6 C7 80 55 00 D5 52 73 00 19    94 7A 60 93 93 B0 8A B6 B4 B6 B6 B5 
HI HI A6 C7 80 55 00 D5 D0                   60 93 93 BO 8A B6 B4 B5 B6 B5 
HI HI A6 C7 80 55 00 D5 45 74 00 45 48    7F 61 95 92 B0 8A B6 B3 B5 B6 B5



------------------------  FO-29の軌道要素 ------------------------------  
      
 
  ■ 軌道要素1:「jamsat−keps:1313」より         
          SB KEPS @ AMSAT  $ORB03163.N
          2Line Orbital Elements 03163.AMSAT

HR AMSAT ORBITAL ELEMENTS FOR AMATEUR SATELLITES IN NASA FORMAT
>FROM WA5QGD FORT WORTH,TX June 12, 2003
SEND SUBSCRIBE/UNSUBSCRIBE TO majordomo@amsat.org ONLY
BID: ORB03163.N

 DECODE 2-LINE ELSETS WITH THE FOLLOWING KEY:
 1 AAAAAU 00  0  0 BBBBB.BBBBBBBB  .CCCCCCCC  00000-0  00000-0 
0  DDDZ
 2 AAAAA EEE.EEEE FFF.FFFF GGGGGGG HHH.HHHH III.IIII JJ.
JJJJJJJJKKKKKZ
 KEY: A-CATALOGNUM B-EPOCHTIME C-DECAY D-ELSETNUM E-INCLINATION
 F-RAAN
 G-ECCENTRICITY H-ARGPERIGEE I-MNANOM J-MNMOTION K-ORBITNUM Z-
CHECKSUM

FO-29
1 24278U 96046B   03163.87697735  .00000054  00000-0  94658-4 0  5972
2 24278  98.5565 299.6812 0350371 280.3980  75.7848 13.52882180336761

 ■ 軌道要素2:「jamsat−keps:1314」より 

SB KEPS @ AMSAT  $ORB03163.O
Orbital Elements  03163.OSCAR

HR AMSAT ORBITAL ELEMENTS FOR OSCAR SATELLITES
>FROM WA5QGD FORT WORTH,TX June 12, 2003
SEND SUBSCRIBE/UNSUBSCRIBE TO majordomo@amsat.org ONLY
BID: ORB03163.O
TO ALL RADIO AMATEURS BT

Satellite: FO-29
Catalog number: 24278
Epoch time:      03163.87697735
Element set:     597
Inclination:       98.5565 deg
RA of node:       299.6812 deg
Eccentricity:    0.0350371
Arg of perigee:   280.3980 deg
Mean anomaly:      75.7848 deg
Mean motion:   13.52882180 rev/day
Decay rate:        5.4e-07 rev/day^2
Epoch rev:           33676
Checksum:              366

------------------- FO-29(JAS-2)のテレメトリに関する情報 --------------------
-- 
 
2)上記2003年6月24日(火)のテレメトリの14:14のパスの
最終行を分析しておきます。

AS33830C  24Jun2003
14:14-14:30(JST)
AOS   MEL  LOS  Elev
 22    96  170  37.4
Freq. 435.805-.788Hz
(JAS-2  No.123  B 100-1200)

HI HI A6 C7 80 55 00 D5 D5 68 08 3E 56  8F 82 61 93 92 B0 72 B7 B4 B6 B6 B5 
 
テレメトリ   内 容        換算算値 単 位
3C	磁気センサーZ軸=	42156.8	[nT]
3D	磁気センサX軸	=	70098.0	[nT]
4A	太陽電池発生電流=	1274.5	[mA]
4B	B充放電電流	=	-98.8	[mA]
4C	B端子電圧	=	15.8	[V]
4D	B中間端子電圧	=	7.0	[V]
5A	バス電圧	=	17.3	[V]
5B	JTA送信電力	=	642.9	[mW]
5C 	構体温度1	=	10.8	[℃]
5D	構体温度2	=	12.0	[℃]
6A	構体温度3	=	11.2	[℃]
6B	構体温度4	=	11.2	[℃]
6C	Bセル温度	=	11.6	[℃]

 ========================== FO-29(ふじ3号)のテレメトリ分析、
QSO情報等 =====================
   
 3)[jamsat-bb:12920]FO-29 CW telemetryにおいて脇田美根夫氏がFO
-29 のテレメトリ-の詳しい解析を
  されていましたので転載させて頂きました。

 2003年2月3日に受信された衛星 FO-29 の CWテレメトリ
を、プログラム『Fo29cwt2』を用いて解析してみました。

http://www.asahi-net.or.jp/~ei7m-wkt/numbr364.htm
http://www.ne.jp/asahi/hamradio/je9pel/fo29cwt2.zip

-------------------------------------------
Name: JE9PEL/1 脇田
Mail: ei7m-wkt@asahi-net.or.jp
URL : http://www.asahi-net.or.jp/~ei7m-wkt/
QTH : Yokohama, Japan
Date: Feb 7, 2003
-------------------------------------------
 ===============================================================
==================================
 
 4)JARL のホームページに運用予定が記載されていましたので
ご紹介します.
       ( http://www.jarl.or.jp/Japanese/3_Fuji/new/uy.htm )
       
        *** 運用予定について ***

        当分の間     アナログ系運用

  * なお,運用予定は都合により,変更することがありますの,で
あらかじめご了承願います。

 照会先 : lab@jarl.or.jp

 最新の情報はテレホンサービス(03−3942−1000)をお聞
きください。  
  
  ふじ2号(JAS−1b)の運用 

 CWテレメトリの機能に障害が発生しています。詳細は「ふじ2号」
の現況をご覧ください。
 運用はアナログ系の連続運用とします。 
     
-----------------------    FO−20(JAS-1b)道要素   ----------------------
---
  
  ■ 軌道要素1 :出典はFO-29「ふじ3号」に同じ.
  
FO-20
1 20480U 90013C   03162.90139535  .00000004  00000-0  73113-4 0 05061
2 20480 099.0654 104.4496 0540833 107.2095 258.8918 12.83333488625056
 
  ■ 軌道要素2 :出典はFO−29「ふじ3号」に同じ.
               
Satellite: FO-20
Catalog number: 20480
Epoch time:      03162.90139535
Element set:    0506
Inclination:      099.0654 deg
RA of node:       104.4496 deg
Eccentricity:    0.0540833
Arg of perigee:   107.2095 deg
Mean anomaly:     258.8918 deg
Mean motion:   12.83333488 rev/day
Decay rate:        4.0e-08 rev/day^2
Epoch rev:           62505
Checksum:              300

--------------------------------------------------------------------------------
 
         ■ ふじ2号/FO−20/JAS-1b ■      
            
          「ふじ2号」 現況                          
                                                        
**************************************
      高山 秀造
E-mail:stakayam@ktmail.ktokai-u.ac.jp
**************************************